SAS1219 EKCH-EKYT

Flight info

Callsign SAS1219
Flight time 0h 30m
Altitude 22000
Route GOLGA T506 LAPMA L621 AAL DCT
Aircraft A319/M-SDE2E3FGIJ1RWXY/E

Departure

Time 2026-04-23 17:20
Airport Copenhagen Kastrup Airport (EKCH)

Arrival

Time 2026-04-23 17:50
Airport Aalborg Airport (EKYT)
Time Latitude Longitude Altitude Speed Heading
2026-04-23 16:44 55.62646 12.64551 17 ft 0 kts 281°
2026-04-23 17:08 55.62645 12.64553 17 ft 2 kts 281°
2026-04-23 17:08 55.62640 12.64597 18 ft 4 kts 281°
2026-04-23 17:09 55.62637 12.64634 17 ft 4 kts 263°
2026-04-23 17:09 55.62647 12.64667 18 ft 4 kts 201°
2026-04-23 17:09 55.62656 12.64673 17 ft 1 kts 192°
2026-04-23 17:09 55.62636 12.64665 17 ft 4 kts 191°
2026-04-23 17:10 55.62615 12.64658 17 ft 0 kts 191°
2026-04-23 17:13 55.62614 12.64657 17 ft 1 kts 191°
2026-04-23 17:13 55.62592 12.64653 17 ft 6 kts 184°
2026-04-23 17:13 55.62541 12.64654 17 ft 9 kts 178°
2026-04-23 17:14 55.62468 12.64664 17 ft 12 kts 172°
2026-04-23 17:14 55.62403 12.64725 18 ft 12 kts 127°
2026-04-23 17:14 55.62354 12.64860 19 ft 14 kts 122°
2026-04-23 17:14 55.62300 12.65008 19 ft 14 kts 124°
2026-04-23 17:15 55.62251 12.65138 19 ft 10 kts 123°
2026-04-23 17:15 55.62188 12.65158 18 ft 12 kts 208°
2026-04-23 17:15 55.62112 12.65071 18 ft 15 kts 213°
2026-04-23 17:15 55.62018 12.64963 19 ft 18 kts 213°
2026-04-23 17:16 55.61913 12.64842 18 ft 18 kts 213°
2026-04-23 17:16 55.61802 12.64714 18 ft 19 kts 213°
2026-04-23 17:16 55.61696 12.64592 20 ft 17 kts 213°
2026-04-23 17:16 55.61593 12.64473 17 ft 19 kts 213°
2026-04-23 17:17 55.61479 12.64343 20 ft 20 kts 213°
2026-04-23 17:17 55.61358 12.64203 19 ft 21 kts 213°
2026-04-23 17:17 55.61240 12.64068 17 ft 20 kts 213°
2026-04-23 17:17 55.61125 12.63936 18 ft 21 kts 213°
2026-04-23 17:18 55.60886 12.63660 19 ft 16 kts 213°
2026-04-23 17:18 55.60798 12.63592 19 ft 13 kts 173°
2026-04-23 17:18 55.60722 12.63714 18 ft 16 kts 131°
2026-04-23 17:19 55.60686 12.63864 19 ft 14 kts 76°
2026-04-23 17:19 55.60827 12.64104 20 ft 60 kts 41°
2026-04-23 17:19 55.61327 12.64880 20 ft 129 kts 41°
2026-04-23 17:19 55.62099 12.66055 375 ft 148 kts 39°
2026-04-23 17:20 55.62872 12.67223 1061 ft 146 kts 39°
2026-04-23 17:20 55.64512 12.69726 2064 ft 171 kts 37°
2026-04-23 17:21 55.66806 12.71693 2992 ft 209 kts
2026-04-23 17:21 55.68329 12.71463 3609 ft 231 kts 350°
2026-04-23 17:21 55.71663 12.70588 5579 ft 248 kts 349°
2026-04-23 17:22 55.73388 12.70113 6625 ft 253 kts 350°
2026-04-23 17:22 55.76940 12.69354 8641 ft 262 kts 353°
2026-04-23 17:23 55.80586 12.68190 10497 ft 271 kts 335°
2026-04-23 17:23 55.82228 12.66401 11088 ft 289 kts 320°
2026-04-23 17:23 55.84399 12.60079 12488 ft 312 kts 294°
2026-04-23 17:24 55.85199 12.56458 13313 ft 316 kts 295°
2026-04-23 17:24 55.86011 12.52796 14103 ft 320 kts 295°
2026-04-23 17:24 55.87668 12.45322 15622 ft 328 kts 295°
2026-04-23 17:25 55.89354 12.37708 17046 ft 337 kts 295°
2026-04-23 17:25 55.90293 12.33809 17736 ft 339 kts 301°
2026-04-23 17:26 55.92953 12.26822 19051 ft 344 kts 308°
2026-04-23 17:26 55.95805 12.19618 19880 ft 366 kts 308°
2026-04-23 17:27 55.98668 12.12311 21659 ft 357 kts 308°
2026-04-23 17:27 56.00097 12.08661 22019 ft 358 kts 308°
2026-04-23 17:27 56.01524 12.05023 22113 ft 353 kts 308°
2026-04-23 17:27 56.02956 12.01589 22137 ft 337 kts 314°
2026-04-23 17:28 56.04669 11.98822 22136 ft 330 kts 326°
2026-04-23 17:28 56.06627 11.96716 22139 ft 328 kts 332°
2026-04-23 17:28 56.08614 11.94724 22135 ft 327 kts 332°
2026-04-23 17:28 56.10596 11.92723 22135 ft 327 kts 331°
2026-04-23 17:29 56.12579 11.90709 22135 ft 327 kts 331°
2026-04-23 17:29 56.14558 11.88694 22138 ft 327 kts 331°
2026-04-23 17:29 56.18519 11.84659 22137 ft 327 kts 331°
2026-04-23 17:30 56.19831 11.83323 22140 ft 327 kts 331°
2026-04-23 17:30 56.24459 11.78601 22142 ft 327 kts 331°
2026-04-23 17:30 56.26439 11.76570 22139 ft 327 kts 331°
2026-04-23 17:31 56.28396 11.74562 22139 ft 327 kts 331°
2026-04-23 17:31 56.30378 11.72531 22142 ft 327 kts 331°
2026-04-23 17:31 56.32356 11.70504 22140 ft 327 kts 331°
2026-04-23 17:31 56.34327 11.68434 22138 ft 327 kts 329°
2026-04-23 17:32 56.36255 11.66235 22133 ft 328 kts 328°
2026-04-23 17:32 56.38159 11.63961 22133 ft 328 kts 327°
2026-04-23 17:32 56.40055 11.61664 22129 ft 328 kts 327°
2026-04-23 17:32 56.41951 11.59370 22130 ft 328 kts 327°
2026-04-23 17:33 56.43858 11.57080 22130 ft 328 kts 327°
2026-04-23 17:33 56.45765 11.54806 22130 ft 328 kts 328°
2026-04-23 17:33 56.47675 11.52538 22130 ft 328 kts 328°
2026-04-23 17:33 56.49561 11.50274 21957 ft 321 kts 325°
2026-04-23 17:34 56.51159 11.47479 21439 ft 321 kts 314°
2026-04-23 17:34 56.52640 11.44439 20865 ft 323 kts 314°
2026-04-23 17:34 56.55613 11.38266 19710 ft 326 kts 313°
2026-04-23 17:35 56.57104 11.35170 19132 ft 326 kts 313°
2026-04-23 17:35 56.60089 11.28969 17976 ft 326 kts 313°
2026-04-23 17:35 56.61577 11.25868 17400 ft 325 kts 313°
2026-04-23 17:36 56.63060 11.22773 16823 ft 325 kts 313°
2026-04-23 17:36 56.64539 11.19685 16240 ft 323 kts 313°
2026-04-23 17:36 56.66009 11.16610 15666 ft 322 kts 313°
2026-04-23 17:36 56.67478 11.13543 15092 ft 321 kts 313°
2026-04-23 17:37 56.68938 11.10491 14508 ft 319 kts 313°
2026-04-23 17:37 56.70395 11.07442 13937 ft 317 kts 313°
2026-04-23 17:37 56.73271 11.01395 12761 ft 314 kts 313°
2026-04-23 17:38 56.74692 10.98394 12208 ft 312 kts 313°
2026-04-23 17:38 56.76108 10.95408 11631 ft 310 kts 313°
2026-04-23 17:38 56.77517 10.92441 11061 ft 308 kts 313°
2026-04-23 17:38 56.78915 10.89491 10482 ft 307 kts 312°
2026-04-23 17:39 56.80304 10.86548 9905 ft 306 kts 312°
2026-04-23 17:39 56.81693 10.83603 9329 ft 306 kts 312°
2026-04-23 17:39 56.83080 10.80660 8758 ft 306 kts 311°
2026-04-23 17:39 56.84442 10.77769 8567 ft 293 kts 311°
2026-04-23 17:40 56.85744 10.75006 8418 ft 281 kts 311°
2026-04-23 17:40 56.86996 10.72350 8275 ft 271 kts 311°
2026-04-23 17:40 56.88216 10.69746 8169 ft 268 kts 311°
2026-04-23 17:40 56.89425 10.67164 8134 ft 267 kts 311°
2026-04-23 17:41 56.90638 10.64572 7930 ft 267 kts 311°
2026-04-23 17:41 56.93042 10.59436 7344 ft 264 kts 311°
2026-04-23 17:41 56.94232 10.56882 7051 ft 263 kts 311°
2026-04-23 17:42 56.96580 10.51848 6459 ft 259 kts 311°
2026-04-23 17:42 56.97738 10.49358 6181 ft 255 kts 310°
2026-04-23 17:42 56.98877 10.46903 5894 ft 251 kts 310°
2026-04-23 17:43 56.99999 10.44478 5641 ft 247 kts 310°
2026-04-23 17:43 57.01100 10.42096 5394 ft 243 kts 310°
2026-04-23 17:43 57.02183 10.39754 5162 ft 238 kts 310°
2026-04-23 17:43 57.03244 10.37462 4925 ft 234 kts 310°
2026-04-23 17:44 57.04288 10.35210 4671 ft 229 kts 310°
2026-04-23 17:44 57.05309 10.33000 4424 ft 225 kts 310°
2026-04-23 17:44 57.07299 10.28688 3925 ft 218 kts 310°
2026-04-23 17:45 57.08272 10.26570 3675 ft 216 kts 309°
2026-04-23 17:45 57.10174 10.22448 3275 ft 206 kts 309°
2026-04-23 17:45 57.11026 10.20395 3118 ft 197 kts 298°
2026-04-23 17:46 57.11410 10.15759 2934 ft 180 kts 265°
2026-04-23 17:46 57.11269 10.13495 2748 ft 176 kts 265°
2026-04-23 17:46 57.11131 10.11267 2529 ft 175 kts 264°
2026-04-23 17:47 57.11039 10.09783 2418 ft 170 kts 264°
2026-04-23 17:47 57.10907 10.07658 2151 ft 163 kts 264°
2026-04-23 17:47 57.10665 10.03782 1739 ft 142 kts 264°
2026-04-23 17:48 57.10556 10.02040 1572 ft 131 kts 264°
2026-04-23 17:48 57.10456 10.00442 1405 ft 122 kts 264°
2026-04-23 17:48 57.10360 9.98921 1236 ft 119 kts 263°
2026-04-23 17:48 57.10258 9.97417 1050 ft 117 kts 263°
2026-04-23 17:49 57.10172 9.95932 883 ft 116 kts 265°
2026-04-23 17:49 57.10078 9.94452 771 ft 117 kts 263°
2026-04-23 17:49 57.09982 9.92962 646 ft 118 kts 263°
2026-04-23 17:49 57.09888 9.91468 468 ft 117 kts 264°
2026-04-23 17:50 57.09800 9.89975 302 ft 117 kts 264°
2026-04-23 17:50 57.09609 9.87027 21 ft 105 kts 263°
2026-04-23 17:50 57.09555 9.86124 19 ft 28 kts 263°
2026-04-23 17:51 57.09532 9.85800 19 ft 25 kts 261°
2026-04-23 17:51 57.09483 9.85689 19 ft 12 kts 156°
2026-04-23 17:51 57.09317 9.85925 19 ft 18 kts 143°
2026-04-23 17:52 57.09212 9.86071 21 ft 19 kts 143°
2026-04-23 17:52 57.09012 9.86352 19 ft 18 kts 142°
2026-04-23 17:52 57.08909 9.86498 19 ft 17 kts 142°
2026-04-23 17:53 57.08736 9.86753 19 ft 14 kts 139°
2026-04-23 17:53 57.08678 9.86845 20 ft 6 kts 138°
2026-04-23 17:53 57.08687 9.86922 19 ft 8 kts 55°
2026-04-23 17:54 57.08704 9.86967 19 ft 1 kts 56°
2026-04-23 17:54 57.08706 9.86973 19 ft 0 kts 56°